FW1312 Weather Reports


Display with metric or nautical units.
time (UTC)temp
F
wind
direction
speed
MPH
gust
MPH
rain 1hr
in
rain 24hr
in
rain mn
in
humidity
%
barometer
mb
20260507024530 62 360 3.0 12.0 0.00 0.00 0.00 85 1013.4
20260507023010 62 355 3.0 14.0 0.00 0.00 0.00 85 1013.1
20260507021550 62 334 7.0 13.0 0.00 0.00 0.00 85 1012.6
20260507020013 62 355 7.0 13.0 0.00 0.00 0.00 85 1012.5
20260507014552 62 19 7.0 15.0 0.00 0.00 0.00 85 1012.4
20260507013022 62 309 7.0 14.0 0.00 0.00 0.00 85 1012.1
20260507011536 62 5 6.0 17.0 0.00 0.00 0.00 85 1011.7
20260507010017 63 355 8.0 12.0 0.00 0.00 0.00 85 1011.4
20260507004552 63 344 4.0 10.0 0.00 0.00 0.00 85 1011.2
20260507003026 63 330 6.0 13.0 0.00 0.00 0.00 85 1011.0
20260507001516 64 333 7.0 15.0 0.00 0.00 0.00 85 1011.1
20260507000107 64 333 9.0 15.0 0.00 0.00 0.00 85 1010.8
20260506234520 64 360 9.0 15.0 0.00 0.00 0.00 85 1010.6
20260506233014 65 305 9.0 16.0 0.00 0.00 0.00 85 1010.5
20260506231538 66 341 8.0 15.0 0.00 0.00 0.00 85 1010.5
20260506230030 67 345 4.0 13.0 0.00 0.00 0.00 86 1010.5
20260506224518 67 343 10.0 18.0 0.00 0.00 0.00 86 1010.3
20260506223006 68 11 9.0 16.0 0.00 0.00 0.00 86 1010.3
20260506221549 69 325 9.0 15.0 0.00 0.00 0.00 86 1010.1
20260506220019 69 355 5.0 16.0 0.00 0.00 0.00 87 1010.1
20260506214541 70 355 7.0 17.0 0.00 0.00 0.00 87 1009.8
20260506213011 70 316 9.0 16.0 0.00 0.00 0.00 87 1009.8
20260506211550 70 343 8.0 17.0 0.00 0.00 0.00 87 1010.0
20260506210035 70 338 8.0 16.0 0.00 0.00 0.00 87 1009.9
20260506204506 72 327 10.0 16.0 0.00 0.00 0.00 87 1009.8
20260506203012 73 323 9.0 13.0 0.00 0.00 0.00 88 1009.7
20260506201549 74 344 5.0 12.0 0.00 0.00 0.00 88 1009.7
20260506200030 74 331 6.0 14.0 0.00 0.00 0.00 88 1009.7
20260506194502 75 292 5.0 12.0 0.00 0.00 0.00 88 1009.6
20260506193103 74 328 6.0 9.0 0.00 0.00 0.00 89 1009.7
20260506191529 73 59 0.0 7.0 0.00 0.00 0.00 89 1009.4
20260506190006 71 78 3.0 5.0 0.00 0.00 0.00 89 1009.4
20260506184525 70 92 7.0 11.0 0.00 0.00 0.00 89 1009.3
20260506183014 69 81 6.0 11.0 0.00 0.00 0.00 89 1009.5
20260506181503 67 92 3.0 11.0 0.00 0.00 0.00 89 1009.9
20260506180038 66 80 8.0 13.0 0.00 0.00 0.00 89 1010.3
20260506174525 64 27 10.0 17.0 0.00 0.00 0.00 89 1010.3
20260506173015 63 26 11.0 19.0 0.00 0.00 0.00 88 1010.7
20260506171548 62 355 12.0 19.0 0.00 0.00 0.00 88 1011.1
20260506170031 62 5 10.0 18.0 0.00 0.00 0.00 88 1011.9
20260506164558 63 31 11.0 23.0 0.00 0.00 0.00 88 1012.4
20260506163031 65 318 15.0 25.0 0.00 0.00 0.00 87 1012.4
20260506161527 68 16 10.0 17.0 0.00 0.00 0.00 87 1011.8
20260506160111 74 325 12.0 24.0 0.00 0.00 0.00 86 1011.4
20260506154524 77 183 2.0 4.0 0.00 0.00 0.00 89 1009.9
20260506153057 77 123 1.0 4.0 0.00 0.00 0.00 89 1009.7
20260506151538 76 193 0.0 6.0 0.00 0.00 0.00 88 1009.7
20260506150027 76 153 1.0 3.0 0.00 0.00 0.00 88 1009.5
20260506144509 76 153 0.0 2.0 0.00 0.00 0.00 88 1009.7
20260506143100 76 153 1.0 3.0 0.00 0.00 0.00 88 1009.8
20260506141526 76 153 1.0 6.0 0.00 0.00 0.00 88 1009.3
20260506140012 76 175 1.0 3.0 0.00 0.00 0.00 88 1009.1
20260506134504 75 176 0.0 3.0 0.00 0.00 0.00 88 1009.0
20260506133056 75 184 0.0 3.0 0.00 0.00 0.00 88 1009.0
20260506131507 75 184 0.0 3.0 0.00 0.00 0.00 87 1008.9
20260506130121 75 185 0.0 2.0 0.00 0.00 0.00 87 1008.9
20260506124526 74 185 0.0 2.0 0.00 0.00 0.00 87 1008.7
20260506123036 74 185 0.0 3.0 0.00 0.00 0.00 87 1008.6
20260506121509 74 186 0.0 2.0 0.00 0.00 0.00 87 1008.7
20260506120022 74 186 0.0 2.0 0.00 0.00 0.00 87 1008.7
20260506114546 74 186 0.0 5.0 0.00 0.00 0.00 87 1008.6
20260506113013 74 171 2.0 5.0 0.00 0.00 0.00 87 1008.4
20260506111551 75 198 1.0 4.0 0.00 0.00 0.00 87 1008.2